Location: �clusier
(49.9361°N, 2.7869°E)
Time: 04:53:41
(UTC+00:00)

Cosmos 2016 Rocket - Pass Details

Date: 23 October 2021
Orbit: 947 x 1000 km, 83.0° (Epoch: 05 December)

Event Time Altitude Azimuth Distance (km) Brightness Sun altitude
Rises 05:13:10 0° 358° (N) 3,633 6.9 -12.0°
Reaches altitude 10° 05:16:23 10° 14° (NNE) 2,681 6.4 -11.5°
Maximum altitude 05:20:52 21° 62° (ENE) 2,008 6.5 -10.7°
Drops below altitude 10° 05:25:20 10° 109° (ESE) 2,673 7.8 -10.0°
Sets 05:28:31 0° 125° (SE) 3,618 8.2 -9.5°
